Date String (YYYY-MM-DD hh:mm:ss) UTC,Instrument flags,Ambient pressure (hPa),Sample flow (lpm),Bypass flow (lpm),Sample temperature (°C),Ambient temperature (°C),ASC tube jacket temperature (°C),LED temperature (°C),Box temperature (°C),Sample RH (%),Span deviation,Mass concentration (μg/m³),Mass concentration (μg/m³),Mass concentration (μg/m³)
DateTimeUTC,F1_M11,P_M11,Q1_M11,Q2_M11,T1_M11,T2_M11,T3_M11,T4_M11,T5_M11,U1_M11,ZSPAN_M11,X2_M11,X0_M11,X1_M11
2022-06-01 07:00:00,,0832.8,4.98,0.00,27.3,26.2,00.0,36.2,29.2,19.4,0000.0,0000.98,0003.25,0000.69
2022-06-01 07:01:00,,0832.9,4.98,0.00,27.3,26.2,00.0,36.2,29.2,19.4,0000.0,0000.91,0003.11,0000.67
2022-06-01 07:02:00,,0833.1,5.01,0.00,27.3,26.2,00.0,36.2,29.2,19.4,0000.0,0000.86,0003.00,0000.65
2022-06-01 07:03:00,,0833.1,5.00,0.00,27.3,26.2,00.0,36.2,29.2,19.2,0000.0,0000.86,0003.01,0000.64
2022-06-01 07:04:00,,0833.1,5.01,0.00,27.3,26.2,00.0,36.2,29.2,19.2,0000.0,0000.86,0003.01,0000.63
2022-06-01 07:05:00,,0833.0,5.00,0.00,27.3,26.2,00.0,36.2,29.2,19.2,0000.0,0000.84,0002.96,0000.62
2022-06-01 07:06:00,,0833.1,4.99,0.00,27.3,26.2,00.0,36.2,29.1,19.2,0000.0,0000.86,0001.92,0000.62
2022-06-01 07:07:00,,0833.0,5.00,0.00,27.3,26.2,00.0,36.2,29.2,19.3,0000.0,0000.88,0001.44,0000.61
2022-06-01 07:08:00,,0833.0,5.00,0.00,27.3,26.2,00.0,36.2,29.2,19.3,0000.0,0000.85,0001.36,0000.61
2022-06-01 07:09:00,,0833.1,5.00,0.00,27.3,26.2,00.0,36.2,29.2,19.2,0000.0,0000.81,0001.23,0000.60
2022-06-01 07:10:00,,0833.1,4.99,0.00,27.3,26.2,00.0,36.2,29.2,19.4,0000.0,0000.80,0001.16,0000.61
2022-06-01 07:11:00,,0833.0,5.01,0.00,27.3,26.2,00.0,36.2,29.2,19.6,0000.0,0000.79,0001.14,0000.61
2022-06-01 07:12:00,,0832.9,5.00,0.00,27.3,26.2,00.0,36.2,29.2,19.4,0000.0,0000.79,0001.13,0000.60
2022-06-01 07:13:00,,0832.9,5.00,0.00,27.3,26.2,00.0,36.2,29.2,19.3,0000.0,0000.78,0001.12,0000.61
2022-06-01 07:14:00,,0832.9,5.01,0.00,27.3,26.2,00.0,36.2,29.2,19.3,0000.0,0000.80,0001.20,0000.61
2022-06-01 07:15:00,,0832.8,5.00,0.00,27.3,26.2,00.0,36.2,29.2,19.3,0000.0,0000.80,0001.22,0000.61
2022-06-01 07:16:00,,0832.8,4.99,0.00,27.3,26.2,00.0,36.2,29.2,19.3,0000.0,0000.81,0001.22,0000.61
2022-06-01 07:17:00,,0832.9,5.01,0.00,27.3,26.2,00.0,36.2,29.2,19.4,0000.0,0000.79,0001.17,0000.61
2022-06-01 07:18:00,,0832.9,5.00,0.00,27.2,26.2,00.0,36.2,29.2,19.4,0000.0,0000.78,0001.14,0000.61
2022-06-01 07:19:00,,0832.9,5.00,0.00,27.3,26.2,00.0,36.2,29.2,19.5,0000.0,0000.77,0001.12,0000.61
2022-06-01 07:20:00,,0832.8,5.00,0.00,27.3,26.2,00.0,36.2,29.2,19.4,0000.0,0000.77,0001.14,0000.62
2022-06-01 07:21:00,,0832.9,4.98,0.00,27.3,26.2,00.0,36.2,29.2,19.3,0000.0,0000.77,0001.13,0000.61
2022-06-01 07:22:00,,0833.1,5.00,0.00,27.3,26.2,00.0,36.2,29.2,19.2,0000.0,0000.77,0001.13,0000.61
2022-06-01 07:23:00,,0833.0,5.00,0.00,27.3,26.2,00.0,36.2,29.2,19.3,0000.0,0000.78,0001.13,0000.61
2022-06-01 07:24:00,,0833.0,4.99,0.00,27.3,26.2,00.0,36.2,29.2,19.5,0000.0,0000.78,0001.13,0000.61
2022-06-01 07:25:00,,0833.1,5.01,0.00,27.3,26.2,00.0,36.2,29.2,19.4,0000.0,0000.76,0001.14,0000.61
2022-06-01 07:26:00,,0833.1,5.00,0.00,27.3,26.2,00.0,36.2,29.2,19.3,0000.0,0000.78,0001.26,0000.62
2022-06-01 07:27:00,,0833.1,5.00,0.00,27.3,26.2,00.0,36.2,29.2,19.6,0000.0,0000.78,0001.28,0000.62
2022-06-01 07:28:00,,0833.2,5.00,0.00,27.3,26.2,00.0,36.2,29.2,19.6,0000.0,0000.78,0001.28,0000.63
2022-06-01 07:29:00,,0833.1,5.00,0.00,27.2,26.2,00.0,36.2,29.1,19.6,0000.0,0000.77,0001.26,0000.63
2022-06-01 07:30:00,,0833.1,5.00,0.00,27.2,26.1,00.0,36.2,29.1,19.5,0000.0,0000.77,0001.26,0000.63
2022-06-01 07:31:00,,0833.1,5.00,0.00,27.2,26.1,00.0,36.2,29.1,19.6,0000.0,0000.79,0001.42,0000.64
2022-06-01 07:32:00,,0833.1,5.01,0.00,27.2,26.1,00.0,36.2,29.1,19.8,0000.0,0000.81,0001.45,0000.64
2022-06-01 07:33:00,,0833.1,5.01,0.00,27.2,26.1,00.0,36.2,29.1,19.8,0000.0,0000.82,0001.47,0000.65
2022-06-01 07:34:00,,0833.0,4.99,0.00,27.2,26.1,00.0,36.2,29.1,20.1,0000.0,0000.82,0001.46,0000.66
2022-06-01 07:35:00,,0832.9,5.01,0.00,27.2,26.0,00.0,36.1,29.1,20.2,0000.0,0000.83,0001.49,0000.67
2022-06-01 07:36:00,,0832.9,5.01,0.00,27.2,26.0,00.0,36.1,29.1,20.3,0000.0,0000.86,0001.49,0000.69
2022-06-01 07:37:00,,0832.9,5.00,0.00,27.2,26.0,00.0,36.1,29.1,20.4,0000.0,0000.86,0001.37,0000.71
2022-06-01 07:38:00,,0832.8,4.99,0.00,27.2,26.0,00.0,36.1,29.1,20.4,0000.0,0000.86,0001.32,0000.72
2022-06-01 07:39:00,,0832.8,5.01,0.00,27.2,26.0,00.0,36.1,29.1,20.5,0000.0,0000.89,0001.39,0000.74
2022-06-01 07:40:00,,0832.8,5.00,0.00,27.2,26.0,00.0,36.1,29.1,20.6,0000.0,0000.92,0001.43,0000.76
2022-06-01 07:41:00,,0832.8,5.00,0.00,27.1,26.0,00.0,36.1,29.0,20.6,0000.0,0000.96,0001.54,0000.77
2022-06-01 07:42:00,,0832.8,4.99,0.00,27.1,25.9,00.0,36.1,29.0,20.6,0000.0,0000.97,0001.45,0000.78
2022-06-01 07:43:00,,0832.9,5.00,0.00,27.1,25.9,00.0,36.1,29.0,20.7,0000.0,0000.95,0001.40,0000.78
2022-06-01 07:44:00,,0832.9,5.01,0.00,27.1,25.9,00.0,36.1,28.9,20.8,0000.0,0000.95,0001.38,0000.78
2022-06-01 07:45:00,,0833.0,4.99,0.00,27.1,25.9,00.0,36.1,28.9,20.9,0000.0,0000.98,0001.45,0000.79
2022-06-01 07:46:00,,0833.1,5.00,0.00,27.0,25.8,00.0,36.1,28.9,21.0,0000.0,0001.00,0001.47,0000.80
2022-06-01 07:47:00,,0833.1,5.01,0.00,27.0,25.8,00.0,36.0,28.9,21.0,0000.0,0001.04,0001.54,0000.79
2022-06-01 07:48:00,,0833.0,5.01,0.00,27.0,25.8,00.0,36.0,28.8,21.1,0000.0,0001.08,0001.60,0000.78
2022-06-01 07:49:00,,0833.1,5.00,0.00,27.0,25.8,00.0,36.0,28.8,21.1,0000.0,0001.08,0001.63,0000.77
2022-06-01 07:50:00,,0833.0,4.99,0.00,27.0,25.8,00.0,36.0,28.8,21.1,0000.0,0001.06,0001.58,0000.76
2022-06-01 07:51:00,,0832.9,5.00,0.00,27.0,25.8,00.0,36.0,28.8,21.2,0000.0,0001.03,0001.52,0000.75
2022-06-01 07:52:00,,0832.8,5.00,0.00,26.9,25.8,00.0,36.0,28.8,21.2,0000.0,0001.00,0001.43,0000.74
2022-06-01 07:53:00,,0832.8,5.00,0.00,26.9,25.8,00.0,36.0,28.8,21.2,0000.0,0001.02,0001.49,0000.74
2022-06-01 07:54:00,,0832.8,4.99,0.00,26.9,25.8,00.0,36.0,28.8,21.3,0000.0,0001.04,0001.56,0000.75
2022-06-01 07:55:00,,0832.8,5.00,0.00,26.9,25.8,00.0,36.0,28.8,21.3,0000.0,0001.05,0001.60,0000.74
2022-06-01 07:56:00,,0832.9,5.01,0.00,26.9,25.7,00.0,35.9,28.8,21.3,0000.0,0001.04,0001.59,0000.74
2022-06-01 07:57:00,,0832.8,4.99,0.00,26.9,25.7,00.0,35.9,28.8,21.3,0000.0,0001.03,0001.71,0000.73
2022-06-01 07:58:00,,0833.1,5.01,0.00,26.9,25.7,00.0,35.9,28.7,21.3,0000.0,0001.01,0001.72,0000.71
2022-06-01 07:59:00,,0833.0,5.01,0.00,26.9,25.7,00.0,35.9,28.7,21.3,0000.0,0000.95,0001.62,0000.70
